Regional Weather Roundup
Issued by NWS

Home | Current Version | Previous Version | Text Only | Print | Product List | Glossary Off
Versions: 1 2 3 4 5 6 7 8 9 10 11 12 13 14 15 16 17 18 19 20 21 22 23 24 25 26 27 28 29 30 31 32 33 34 35 36 37 38 39 40 41 42 43 44 45 46 47 48 49 50

000
ASUS43 KLSX 210059
RWRMO

WEATHER SUMMARY FOR MISSOURI
NATIONAL WEATHER SERVICE SPRINGFIELD MO
800 PM CDT WED AUG 20 2014

NOTE: "FAIR" INDICATES FEW OR NO CLOUDS BELOW 12,000 FEET WITH NO
       SIGNIFICANT WEATHER AND/OR OBSTRUCTIONS TO VISIBILITY.
       CURRENT SKY AND/OR WEATHER CONDITIONS ARE NOT AVAILABLE FOR
       CHILLICOTHE AND FARMINGTON.

MOZ001>031-035>038-043-044-053-054-210200-
...NORTHERN AND WESTERN MISSOURI...

CITY           SKY/WX    TMP DP  RH WIND       PRES   REMARKS
KANSAS CTY INT PTCLDY    83  71  67 S9        29.83S
KANSAS C DTWN  CLEAR     89  71  55 S14       29.81S HX  95
LEE`S SUMMIT   CLEAR     86  70  58 S10       29.85S HX  90
ST JOSEPH      MOCLDY    85  74  69 SE10      29.80F HX  92
KIRKSVILLE     CLEAR     80  75  84 SE7       29.88F

$$
MOZ066>068-077>081-088>096-101>105-210200-
...SOUTHWEST MISSOURI...

CITY           SKY/WX    TMP DP  RH WIND       PRES   REMARKS
SPRINGFIELD    CLEAR     83  65  54 S8        29.92S
JOPLIN         CLEAR     85  62  46 S15       29.90S

$$
MOZ032>034-039>042-045>050-055>058-069>072-210200-
...CENTRAL MISSOURI...

CITY           SKY/WX    TMP DP  RH WIND       PRES   REMARKS
COLUMBIA       PTCLDY    77  76  96 SE6       29.90S
JEFFERSON CITY MOCLDY    77  75  93 E6        29.88F
ROLLA          CLOUDY    74  71  91 S3        29.91F
SEDALIA        CLEAR     81  72  74 SE6       29.88S
OSAGE BEACH    MOCLDY    79  70  73 CALM      29.90S

$$
MOZ051-052-059>065-210200-
...EAST CENTRAL MISSOURI...

CITY           SKY/WX    TMP DP  RH WIND       PRES   REMARKS
ST LOUIS INTL  MOCLDY    84  74  71 SE6       29.94R HX  91
SPIRIT OF STL  TSTM      73  69  87 W13G25    29.95R FOG
ST CHARLES     PTCLDY    79  74  84 E5        29.92R

$$
MOZ072>076-082>087-097>100-106>115-210200-
...SOUTH CENTRAL AND SOUTHEAST MISSOURI...

CITY           SKY/WX    TMP DP  RH WIND       PRES   REMARKS
CAPE GIRARDEAU PTCLDY    82  74  76 S7        29.93R
FARMINGTON     CLEAR     79  72  78 E6        29.96R
POPLAR BLUFF   CLEAR     84  72  67 S6        29.92R
WEST PLAINS    PTCLDY    83  60  45 SW5       29.97R

$$


USA.gov is the U.S. government's official web portal to all federal, state and local government web resources and services.